Location: De Greiden
(52.9496°N, 5.9137°E)
Time: 01:49:01
(UTC+00:00)

COSMO-SKYMED 1 - Pass Details

Date: 24 January 2021
Orbit: 621 x 623 km, 97.9° (Epoch: 26 February)

Event Time Altitude Azimuth Distance (km) Brightness Sun altitude
Exits shadow 17:30:20 - 18° (NNE) 2,782 5.6 -12.4°
Reaches altitude 10° 17:32:15 10° 23° (NNE) 2,007 4.8 -12.7°
Maximum altitude 17:36:31 51° 100° (E) 791 2.7 -13.3°
Drops below altitude 10° 17:40:44 10° 176° (S) 1,990 5.3 -13.9°
Sets 17:42:58 0° 182° (S) 2,891 6.2 -14.3°
